Wind_Speed
24 27 34 36 33 24 19 12 17 15 24 23 35 34 29 28 27 21 20 20 26 26 39 38 58 32 39 43 31 33 36 38 27 19 25 23 18 14 16 12 9 10 9 8
17 24 23 26 28 25 17 12 14 8 24 21 27 31 27 22 27 20 24 26 24 21 26 24 27 35 38 43 46 62 42 44 34 26 26 23 21 26 11 7 10 11 9 10
17 15 20 19 22 21 25 19 18 12 18 20 20 27 26 25 24 21 27 22 20 19 23 26 22 30 33 38 48 34 28 33 36 36 29 32 26 17 12 21 13 10 10 12
10 9 21 22 21 21 27 22 16 16 10 7 18 6 24 25 28 25 26 24 21 21 25 25 23 26 27 30 29 45 48 54 30 34 35 22 14 30 19 13 12 14 14 14
10 15 18 24 23 23 20 17 17 15 15 16 15 12 29 23 27 31 28 26 20 20 18 18 16 18 22 32 30 26 36 52 34 33 25 23 28 22 15 14 16 17 16 13
8 11 12 17 19 14 15 11 10 11 15 9 23 10 17 29 27 30 31 25 21 21 23 20 21 24 26 36 32 38 25 45 44 38 34 31 28 16 12 13 17 16 14 15
10 13 13 14 19 18 18 11 2 3 4 7 21 11 26 21 29 31 35 33 28 22 19 24 25 30 30 27 21 24 29 26 31 36 31 30 21 13 16 18 18 17 17 17
5 4 21 19 24 19 23 17 6 6 5 6 7 8 32 31 30 29 26 26 29 27 29 25 25 15 6 17 14 8 7 16 8 26 25 23 22 22 17 16 18 17 18 17
4 4 9 4 22 21 10 21 14 2 2 1 5 23 36 34 33 31 34 19 30 29 28 26 17 14 15 15 13 8 5 4 23 27 25 23 20 17 13 17 19 18 18 18
2 4 8 8 13 11 3 11 7 3 2 3 7 17 23 33 39 35 39 28 29 36 30 22 14 17 17 16 17 14 12 14 19 24 23 19 16 16 18 16 17 19 19 18
5 4 7 14 17 19 15 11 4 6 4 1 2 14 33 38 29 40 35 25 26 37 31 21 17 16 23 22 20 19 19 19 21 21 20 19 15 17 18 20 21 20 17 16
3 3 6 25 20 21 11 13 18 8 6 9 6 10 6 11 28 27 31 23 24 33 26 24 20 24 26 23 21 20 19 19 21 20 16 14 14 18 22 23 21 18 16 19
2 3 4 12 13 14 13 14 11 20 14 14 6 9 17 11 15 31 24 21 32 31 30 29 26 26 27 26 24 21 20 20 15 14 15 16 21 25 24 23 21 17 19 23
7 6 4 5 14 15 14 12 8 16 13 8 6 15 11 7 16 24 35 35 38 42 37 31 30 30 28 26 26 25 21 18 16 16 15 17 25 25 24 21 19 20 23 26
6 7 9 10 13 15 17 15 10 17 15 8 8 7 5 4 21 33 34 33 36 37 38 31 35 38 33 29 27 22 20 18 13 10 7 16 22 23 22 20 22 24 26 29
3 6 10 11 9 17 19 13 16 18 17 8 5 2 3 19 19 32 31 27 26 24 20 28 30 34 32 29 27 25 22 11 4 7 8 9 11 21 23 23 24 26 30 34
6 9 11 8 8 6 12 22 18 16 20 14 10 11 10 24 27 25 24 23 21 16 15 15 16 21 19 20 21 20 17 15 11 13 9 9 9 12 20 22 25 29 33 36
12 10 6 11 9 2 9 15 17 18 17 17 4 16 14 14 12 20 13 10 10 10 10 7 9 11 18 21 20 16 12 13 12 17 14 14 16 17 22 25 29 33 36 41
12 12 8 2 1 10 4 2 9 12 16 17 5 16 23 20 9 11 11 8 5 12 12 10 8 10 14 18 20 19 21 22 23 20 16 17 23 20 28 30 35 39 41 39
12 11 8 4 3 2 11 10 8 16 27 28 20 23 18 21 21 18 14 17 13 13 16 14 14 14 16 19 24 26 26 20 16 20 19 19 25 28 31 33 32 33 34 35
12 8 3 5 1 8 6 3 12 16 17 23 22 14 14 17 15 20 24 19 16 11 10 12 15 17 18 21 25 23 23 21 18 24 23 21 26 29 31 32 31 31 32 33
6 5 3 7 7 9 2 7 8 14 11 27 25 21 23 22 23 20 21 20 15 11 10 11 8 6 13 26 31 31 28 23 15 17 17 22 26 27 26 26 27 29 31 32
2 3 1 7 8 10 8 7 7 9 17 23 26 28 24 21 21 20 18 17 13 13 12 10 10 11 11 5 23 9 9 16 13 17 19 21 20 20 21 23 26 28 30 29
4 5 9 8 10 12 10 11 13 14 14 20 24 26 12 16 18 18 20 17 16 17 15 12 9 8 6 6 6 7 11 12 14 13 14 15 16 17 20 23 25 26 26 25
10 13 9 9 9 8 12 19 14 14 21 22 22 18 21 17 14 14 16 17 19 15 13 10 7 5 3 4 5 6 7 9 10 11 12 13 15 17 20 21 23 23 22 21
6 7 7 10 9 8 18 19 21 26 21 23 22 22 20 17 14 15 14 17 16 14 12 9 6 5 5 5 5 6 6 8 9 10 10 11 13 16 18 20 21 20 20 18
Wind_Direction
188 199 198 198 195 197 196 202 230 216 195 204 214 239 234 220 209 230 252 244 222 231 233 246 211 242 204 232 207 210 216 244 233 228 224 208 195 213 217 232 230 204 228 254
186 204 202 208 204 211 202 212 205 201 192 213 219 238 239 230 221 233 254 249 238 243 245 244 234 237 233 244 254 253 220 220 228 223 205 210 203 213 218 238 200 226 260 292
190 199 191 188 202 214 207 210 197 218 192 224 246 258 239 230 224 236 247 250 239 249 260 252 263 252 249 259 260 209 211 210 214 213 208 206 211 212 208 204 208 250 274 291
203 186 194 193 198 199 213 202 216 222 259 275 231 258 236 229 227 236 237 246 235 237 250 240 250 259 280 271 244 250 249 239 219 194 194 205 215 235 205 209 246 260 275 282
182 201 198 203 200 193 219 213 233 242 265 277 269 243 249 239 237 234 232 245 243 236 224 244 264 286 288 269 270 268 277 264 224 187 199 204 205 192 199 232 245 252 258 275
204 184 218 216 206 220 225 229 233 256 262 243 260 244 262 230 229 234 238 238 248 245 253 266 274 287 299 287 285 275 273 280 204 198 196 204 197 196 219 227 248 259 263 273
215 226 232 204 206 197 205 216 179 188 182 218 235 232 236 228 229 232 235 241 244 245 257 265 281 276 281 288 254 253 287 262 188 184 206 200 195 201 217 231 251 253 255 257
246 249 217 199 204 200 210 202 178 168 180 245 253 215 231 225 214 224 231 250 247 243 255 264 266 261 254 243 225 192 296 228 201 196 204 207 210 208 227 245 245 250 247 246
296 248 143 200 201 181 189 206 223 73 114 66 213 239 243 234 230 224 229 238 230 237 250 255 235 225 207 236 253 251 183 197 166 180 201 216 221 230 249 244 245 241 240 255
349 341 191 153 171 194 177 186 189 141 118 242 248 241 239 242 241 230 229 230 220 228 232 227 203 224 222 203 187 176 165 162 171 193 214 222 250 254 245 245 239 239 249 266
266 162 201 194 202 196 193 203 190 171 199 264 322 246 245 250 261 236 230 223 219 225 219 211 194 190 185 195 206 202 191 205 212 215 232 246 248 251 245 242 241 245 260 275
294 284 208 195 198 189 199 191 182 163 209 234 267 278 196 250 229 220 219 229 225 219 207 212 195 199 193 198 202 197 204 209 213 231 235 237 251 246 244 241 245 253 267 283
181 261 109 170 193 207 201 201 230 219 200 207 173 277 356 266 197 204 200 217 206 207 224 215 209 207 210 205 203 200 196 202 210 229 232 238 240 227 228 233 239 252 272 283
268 332 318 247 211 199 209 226 229 211 195 184 261 289 14 67 179 195 193 193 201 202 205 205 206 212 213 209 214 205 208 214 227 219 220 238 233 227 227 234 245 260 273 284
261 305 320 312 244 243 224 219 236 220 218 207 263 295 51 95 173 175 181 179 186 188 193 201 212 217 213 214 213 212 218 225 215 224 250 246 240 244 245 244 254 264 275 284
317 337 323 291 306 230 212 222 242 235 198 216 299 132 125 173 150 150 164 169 175 187 195 205 214 214 215 211 217 219 220 188 93 355 257 278 256 249 241 248 260 273 284 289
302 317 321 298 332 329 242 239 238 236 229 249 275 180 152 160 159 135 138 152 157 162 173 195 208 210 219 228 235 237 228 222 268 313 281 278 272 261 254 259 271 280 286 294
283 282 275 296 333 132 212 222 232 237 245 214 277 183 193 210 141 129 113 137 130 154 175 197 187 222 244 240 234 230 241 262 284 274 276 280 299 293 291 281 284 289 297 303
251 264 264 263 57 281 240 185 218 212 187 197 190 199 171 161 138 157 200 220 202 211 262 240 239 242 245 242 239 241 236 254 252 241 277 287 287 287 300 295 295 295 298 300
212 236 248 52 37 211 161 77 170 181 188 200 203 177 194 207 195 234 188 192 188 195 187 204 217 227 241 236 231 233 240 246 250 248 265 269 278 298 290 288 293 294 298 302
208 204 235 322 292 284 209 106 170 184 201 186 173 180 202 213 209 176 183 197 194 197 212 234 230 231 231 238 233 235 233 226 225 264 259 271 279 282 282 289 294 303 309 312
259 228 196 241 238 267 121 165 186 209 183 179 183 183 216 213 179 181 191 181 185 200 220 220 201 213 223 224 207 209 207 217 235 256 264 271 276 282 293 301 306 310 311 312
229 223 208 221 254 276 325 242 154 145 153 167 173 173 171 170 174 168 178 175 173 166 152 120 110 87 71 157 218 199 233 231 245 257 265 273 285 296 305 311 313 314 312 311
332 272 252 314 243 225 219 165 171 179 175 180 175 165 177 183 171 170 176 172 169 160 146 143 136 128 119 127 160 195 226 245 257 270 284 294 303 312 315 318 319 319 316 314
287 311 283 276 275 185 171 179 167 186 163 172 177 193 177 172 175 181 176 170 168 162 157 156 165 174 198 216 225 235 254 268 285 293 299 307 314 319 322 325 329 326 323 322
236 263 289 284 249 218 206 199 204 172 168 168 175 170 171 177 190 182 179 173 168 163 170 186 207 230 245 258 266 274 282 288 288 290 295 304 317 323 329 337 337 340 343 340
Height
3025 3026 3027 3032 3039 3044 3049 3052 3055 3061 3067 3072 3070 3072 3082 3088 3095 3097 3100 3104 3108 3113 3119 3115 3121 3127 3110 3134 3134 3139 3141 3148 3151 3152 3158 3158 3156 3159 3162 3166 3168 3172 3174 3174
3022 3022 3030 3036 3041 3044 3046 3049 3053 3059 3064 3069 3070 3069 3079 3085 3089 3093 3095 3099 3104 3108 3111 3114 3118 3120 3131 3128 3130 3129 3128 3134 3143 3148 3149 3155 3154 3157 3159 3163 3167 3171 3171 3170
3021 3026 3030 3034 3040 3043 3044 3046 3051 3056 3061 3066 3069 3069 3075 3082 3085 3088 3091 3093 3098 3102 3104 3107 3109 3113 3120 3122 3124 3125 3096 3120 3128 3136 3144 3151 3154 3156 3157 3160 3164 3166 3166 3166
3023 3026 3028 3032 3035 3041 3040 3046 3051 3056 3062 3064 3068 3065 3069 3077 3080 3084 3088 3090 3095 3100 3105 3107 3111 3115 3119 3119 3121 3132 3123 3112 3117 3130 3138 3146 3151 3155 3155 3154 3158 3163 3163 3162
3024 3026 3028 3029 3032 3037 3042 3048 3051 3056 3060 3063 3064 3065 3062 3073 3076 3080 3084 3089 3091 3098 3102 3105 3108 3111 3114 3115 3118 3118 3117 3111 3119 3119 3135 3141 3147 3149 3147 3151 3156 3160 3159 3158
3023 3025 3026 3028 3031 3038 3044 3048 3051 3055 3059 3061 3059 3063 3058 3066 3071 3076 3080 3085 3089 3093 3096 3100 3104 3105 3104 3106 3108 3100 3105 3110 3113 3121 3130 3138 3142 3143 3144 3148 3154 3155 3154 3154
3024 3024 3024 3026 3031 3036 3041 3046 3050 3056 3058 3056 3055 3059 3053 3060 3067 3070 3074 3079 3084 3089 3092 3097 3099 3101 3101 3098 3101 3099 3099 3104 3109 3109 3125 3133 3137 3138 3142 3145 3150 3151 3151 3149
3025 3024 3022 3024 3028 3034 3038 3043 3043 3050 3055 3048 3052 3053 3045 3056 3063 3065 3071 3075 3079 3084 3089 3093 3096 3099 3098 3095 3097 3099 3092 3104 3107 3107 3129 3135 3137 3136 3135 3141 3143 3144 3146 3146
3025 3021 3021 3022 3027 3035 3037 3041 3046 3046 3050 3051 3050 3048 3046 3050 3057 3060 3065 3069 3073 3078 3084 3088 3091 3093 3095 3094 3094 3096 3096 3091 3102 3117 3127 3130 3131 3131 3135 3137 3138 3139 3141 3142
3025 3023 3024 3027 3031 3034 3037 3042 3045 3048 3054 3054 3046 3045 3042 3046 3048 3057 3059 3065 3070 3077 3081 3083 3085 3088 3093 3093 3094 3096 3097 3101 3105 3115 3120 3123 3127 3131 3132 3129 3133 3138 3138 3137
3026 3027 3027 3028 3029 3031 3037 3038 3044 3047 3050 3053 3052 3040 3042 3042 3044 3050 3056 3060 3065 3073 3076 3079 3084 3087 3091 3094 3095 3098 3102 3101 3107 3111 3117 3121 3125 3126 3125 3127 3130 3135 3133 3131
3024 3026 3026 3026 3029 3033 3037 3039 3044 3045 3047 3047 3049 3041 3039 3038 3035 3042 3049 3055 3060 3068 3072 3076 3082 3084 3087 3091 3096 3097 3101 3104 3107 3110 3117 3121 3121 3121 3121 3125 3128 3128 3128 3126
3023 3023 3024 3027 3030 3031 3035 3038 3040 3041 3043 3045 3048 3039 3037 3031 3029 3037 3046 3051 3057 3063 3067 3072 3076 3082 3082 3089 3094 3098 3100 3104 3105 3110 3115 3119 3119 3119 3122 3124 3125 3124 3123 3120
3022 3021 3021 3025 3025 3029 3032 3034 3037 3040 3040 3042 3038 3036 3036 3031 3030 3033 3040 3046 3051 3058 3061 3066 3068 3075 3081 3085 3090 3095 3099 3100 3103 3107 3111 3115 3116 3116 3118 3118 3120 3119 3118 3116
3021 3020 3020 3021 3022 3025 3029 3031 3033 3035 3037 3037 3038 3038 3033 3031 3031 3034 3040 3045 3049 3055 3059 3064 3067 3071 3076 3082 3086 3091 3095 3098 3102 3106 3109 3111 3113 3115 3115 3116 3116 3115 3114 3110
3019 3021 3019 3019 3019 3021 3024 3027 3030 3031 3032 3032 3035 3036 3039 3038 3040 3040 3044 3048 3053 3058 3064 3068 3070 3073 3076 3079 3085 3089 3091 3095 3100 3105 3106 3108 3111 3111 3111 3111 3110 3108 3105 3102
3019 3019 3019 3017 3018 3019 3023 3023 3026 3028 3028 3028 3029 3036 3040 3039 3043 3041 3044 3049 3052 3057 3062 3065 3070 3072 3075 3080 3083 3086 3089 3093 3095 3098 3100 3103 3103 3103 3104 3103 3102 3100 3099 3095
3017 3019 3019 3016 3016 3019 3019 3018 3021 3025 3024 3025 3025 3032 3039 3036 3042 3044 3049 3052 3054 3057 3061 3065 3067 3071 3073 3075 3079 3083 3086 3089 3094 3094 3097 3098 3096 3098 3099 3097 3095 3093 3089 3085
3017 3018 3017 3014 3016 3017 3015 3015 3018 3019 3023 3024 3027 3030 3035 3041 3047 3049 3053 3054 3057 3057 3063 3063 3064 3067 3069 3073 3075 3078 3081 3085 3087 3091 3092 3093 3093 3091 3091 3089 3087 3084 3081 3076
3014 3016 3016 3014 3017 3017 3015 3016 3017 3020 3022 3025 3032 3033 3034 3039 3045 3049 3050 3053 3057 3059 3061 3064 3065 3066 3067 3069 3071 3074 3078 3081 3083 3087 3088 3088 3087 3086 3084 3082 3080 3077 3073 3069
3013 3014 3013 3013 3016 3014 3015 3017 3019 3022 3025 3023 3029 3037 3038 3040 3044 3045 3046 3050 3054 3057 3060 3062 3062 3063 3065 3067 3068 3072 3075 3078 3079 3082 3082 3083 3084 3082 3079 3076 3073 3069 3064 3059
3012 3013 3011 3014 3019 3016 3012 3014 3020 3020 3020 3023 3028 3032 3035 3039 3039 3043 3047 3050 3053 3058 3059 3059 3059 3060 3061 3062 3062 3066 3069 3073 3073 3079 3079 3079 3077 3074 3071 3069 3065 3062 3057 3053
3012 3012 3012 3015 3011 3010 3011 3013 3017 3020 3021 3024 3028 3031 3034 3038 3041 3043 3045 3049 3053 3057 3059 3059 3060 3060 3060 3060 3061 3062 3066 3073 3075 3075 3074 3073 3071 3069 3066 3063 3059 3055 3052 3048
3009 3009 3011 3010 3008 3007 3009 3010 3015 3020 3021 3022 3027 3032 3033 3036 3040 3043 3046 3049 3053 3056 3059 3060 3061 3062 3063 3064 3065 3067 3070 3070 3071 3070 3069 3067 3066 3063 3061 3058 3055 3051 3048 3043
3009 3009 3007 3007 3008 3009 3010 3011 3013 3017 3020 3023 3028 3032 3035 3036 3039 3043 3046 3049 3053 3055 3057 3059 3061 3063 3064 3065 3066 3066 3066 3066 3066 3065 3065 3064 3062 3061 3059 3056 3052 3048 3045 3041
3004 3005 3007 3005 3009 3008 3011 3012 3016 3020 3021 3025 3028 3029 3033 3038 3042 3044 3047 3051 3054 3056 3058 3060 3061 3062 3062 3063 3063 3063 3062 3063 3063 3063 3063 3062 3060 3058 3056 3052 3050 3046 3041 3037